[[{"header":{"parameterUnit":"m.s-1","parameterCategory":2,"la1":30.2992,"la2":30.254,"lo1":-89.0895,"lo2":-89.0443,"dy":0.0025,"dx":0.0025,"nx":19,"ny":19,"refTime":"2026-05-14T21:00:00:Z","depth":"0","parameterNumber":2,"parameterNumberName":"U-component_of_CURRENTS"},"data":[0,0,0,0.0128,0.0126,0.0081,0.0081,0.0217,0.0219,0,0,0,0,0,0,0,0,0,0,0,0.016,0.016,0.0128,0.0126,0.0081,0.0081,0.0217,0.0219,0,0,0,0,0,0,0,0,0,0,0,0.016,0.016,0.016,0.0126,0.0081,0.0081,0.0217,0.0204,0,0,0,0,0,0,0,0,0,0,0.0225,0.0212,0.016,0.016,0.0126,0.0081,0.0081,0.0202,0.0205,0.0291,0,0.0286,0,0.0251,0.0232,0.0233,0,0,0,0.0134,0.0208,0.0206,0.016,0.0125,0.0081,0.0103,0.0202,0.0207,0.0297,0.0288,0.0291,0.0253,0.0233,0.0234,0.0537,0.0539,0,0,0.0136,0.0148,0.0202,0.0208,0.0122,0.0105,0.0102,0.0203,0.0211,0.0288,0.0293,0.0256,0.0234,0.0236,0.0535,0.0537,0,0,0,0.0138,0.015,0.014,0.0205,0.0178,0.0103,0.01,0.0206,0.0205,0.0294,0.0257,0.0236,0.0238,0.0533,0.0536,0.0629,0,0,0,0.014,0.015,0.0141,0.0147,0.0175,0.016,0.0101,0.0198,0.0207,0.0257,0.0236,0.024,0.0531,0.0535,0.0622,0.0681,0,0,0,0.0161,0.0151,0.015,0.0148,0.0123,0.0157,0.016,0.0198,0.0186,0.0233,0.024,0.053,0.0534,0.0616,0.067,0.0793,0,0,0,0.0169,0.0192,0.015,0.0173,0.0123,0.0168,0.0159,0.0191,0.0232,0.0237,0.0531,0.0536,0.0614,0.0664,0.0786,0.0877,0.0918,0,0,0.0209,0.0197,0.0213,0.0175,0.0233,0.0174,0.029,0.0325,0.0343,0.0508,0.0513,0.0624,0.067,0.0791,0.1134,0.1167,0,0,0,0.0234,0.0259,0.0265,0.0284,0.0289,0.0356,0.0367,0.0422,0.056,0.0384,0.069,0.0717,0.0789,0.0831,0.0859,0.1011,0.0556,0.0556,0.0555,0.0321,0.0327,0.0387,0.0417,0.0453,0.0507,0.0595,0.0695,0.0672,0.0771,0.084,0.1064,0.1112,0.1133,0.129,0.0885,0.0885,0.0886,0.0886,0.0427,0.047,0.0503,0.0566,0.0629,0.0726,0.087,0.0891,0.1099,0.1019,0.1084,0.0987,0.1169,0.1326,0.0893,0.0892,0.0891,0.089,0.089,0.0501,0.0525,0.0565,0.0659,0.0774,0.0846,0.1016,0.1109,0.1209,0.1296,0.135,0.1348,0.1445,0.1325,0.1325,0.1326,0.1327,0.1328,0.1328,0.0548,0.0595,0.0648,0.0742,0.0792,0.0908,0.11,0.1235,0.1437,0.1502,0.1503,0.1583,0.1198,0.1133,0.1341,0.1339,0.1337,0.1336,0.1335,0.0618,0.0615,0.0692,0.0737,0.0847,0.0947,0.1132,0.1444,0.1621,0.1752,0.1947,0.1624,0.1611,0.1588,0.1536,0.1835,0.1835,0.1836,0.1836,0.0632,0.0646,0.071,0.076,0.0849,0.096,0.1214,0.1506,0.1939,0.2168,0.2241,0.217,0.2142,0.2154,0.212,0.2075,0.2506,0.2507,0.2507,0.0652,0.0672,0.0703,0.0749,0.0827,0.0969,0.1185,0.1536,0.2202,0.2546,0.2451,0.2423,0.2318,0.2262,0.2266,0.2205,0.2123,0,0]},{"header":{"parameterUnit":"m.s-1","parameterCategory":2,"la1":30.2992,"la2":30.254,"lo1":-89.0895,"lo2":-89.0443,"dy":0.0025,"dx":0.0025,"nx":19,"ny":19,"refTime":"2026-05-14T21:00:00:Z","depth":"0","parameterNumber":3,"parameterNumberName":"V-component_of_CURRENTS"},"data":[0,0,0,-0.0376,-0.0377,-0.0409,-0.0409,-0.0266,-0.0265,0,0,0,0,0,0,0,0,0,0,0,-0.0363,-0.0363,-0.0376,-0.0377,-0.0409,-0.0409,-0.0267,-0.0265,0,0,0,0,0,0,0,0,0,0,0,-0.0362,-0.0363,-0.0363,-0.0378,-0.0409,-0.0409,-0.0267,-0.0286,0,0,0,0,0,0,0,0,0,0,-0.0277,-0.0296,-0.0363,-0.0364,-0.0378,-0.0409,-0.0409,-0.0288,-0.0284,-0.0203,0,-0.0221,0,-0.0241,-0.0252,-0.0251,0,0,0,-0.0365,-0.03,-0.0309,-0.0364,-0.0378,-0.0409,-0.0391,-0.0288,-0.0283,-0.0197,-0.0219,-0.0216,-0.0238,-0.0251,-0.025,-0.006,-0.0059,0,0,-0.0364,-0.0359,-0.0313,-0.0307,-0.0398,-0.039,-0.0392,-0.0287,-0.0281,-0.0219,-0.0213,-0.0236,-0.0249,-0.0248,-0.006,-0.0059,0,0,0,-0.0367,-0.0358,-0.0373,-0.0311,-0.0333,-0.0392,-0.0394,-0.0286,-0.0292,-0.0212,-0.0234,-0.0248,-0.0246,-0.0061,-0.006,0.0024,0,0,0,-0.0365,-0.0361,-0.0372,-0.0368,-0.0336,-0.0335,-0.0395,-0.03,-0.0289,-0.0235,-0.0248,-0.0244,-0.0062,-0.006,0.002,0.0123,0,0,0,-0.0359,-0.036,-0.0368,-0.0368,-0.0389,-0.0339,-0.0339,-0.0299,-0.0301,-0.0251,-0.0244,-0.0062,-0.0061,0.0017,0.0115,0.0273,0,0,0,-0.0345,-0.0352,-0.0368,-0.0377,-0.0389,-0.0366,-0.0341,-0.0321,-0.0284,-0.0247,-0.0062,-0.006,0.0016,0.011,0.0266,0.034,0.0376,0,0,-0.0342,-0.0352,-0.0355,-0.0371,-0.0356,-0.036,-0.0277,-0.0231,-0.0222,-0.0083,-0.008,0.0021,0.0114,0.0271,0.0431,0.0466,0,0,0,-0.0346,-0.034,-0.0344,-0.0339,-0.0334,-0.025,-0.0232,-0.018,-0.0079,-0.0196,0.003,0.0088,0.0184,0.0213,0.0241,0.0073,-0.0053,-0.0053,-0.0053,-0.0309,-0.0311,-0.0287,-0.027,-0.0238,-0.0161,-0.0067,0.0022,-0.0013,0.0043,0.016,0.0349,0.0377,0.0399,0.0223,0.0129,0.0129,0.0129,0.0129,-0.026,-0.0229,-0.0207,-0.0183,-0.0102,-0.0017,0.0148,0.0169,0.0374,0.0267,0.0354,0.0304,0.0435,0.0236,0.0135,0.0134,0.0133,0.0133,0.0132,-0.0208,-0.0186,-0.018,-0.011,0.0013,0.0106,0.0371,0.0456,0.0494,0.0597,0.066,0.0658,0.0489,0.0634,0.0635,0.0637,0.0638,0.0638,0.0639,-0.0148,-0.0135,-0.0087,-0.0017,0.0064,0.0259,0.0527,0.0694,0.084,0.0827,0.0827,0.0542,0.0506,0.0492,0.0657,0.0654,0.0651,0.065,0.0648,-0.0068,-0.0078,0.0001,0.0071,0.0299,0.0592,0.0779,0.1105,0.1231,0.1306,0.0891,0.0959,0.097,0.0946,0.0944,0.1217,0.1217,0.1217,0.1217,-0.0014,-0.0014,0.0111,0.027,0.0527,0.0781,0.1226,0.1415,0.1311,0.1167,0.1026,0.0846,0.0831,0.082,0.0799,0.0788,0.1015,0.1014,0.1013,0.0047,0.0071,0.0192,0.034,0.0645,0.1027,0.1426,0.1617,0.1306,0.0981,0.0784,0.0793,0.0492,0.0482,0.0425,0.0408,0.0375,0,0]}],[{"header":{"parameterUnit":"m.s-1","parameterCategory":2,"la1":30.2992,"la2":30.254,"lo1":-89.0895,"lo2":-89.0443,"dy":0.0025,"dx":0.0025,"nx":19,"ny":19,"refTime":"2026-05-14T21:00:00:Z","depth":"2","parameterNumber":2,"parameterNumberName":"U-component_of_CURRENTS"},"data":[0,0,0,0.0233,0.0232,0.0193,0.0193,0.0318,0.0319,0,0,0,0,0,0,0,0,0,0,0,0.0263,0.0263,0.0233,0.0232,0.0193,0.0193,0.0317,0.0319,0,0,0,0,0,0,0,0,0,0,0,0.0263,0.0263,0.0263,0.0232,0.0193,0.0193,0.0317,0.0304,0,0,0,0,0,0,0,0,0,0,0.032,0.0306,0.0263,0.0263,0.0231,0.0193,0.0193,0.0301,0.0305,0.0385,0,0.0385,0,0.0353,0.0332,0.0332,0,0,0,0.0234,0.0303,0.0306,0.0263,0.0231,0.0193,0.0211,0.0302,0.0306,0.0391,0.0387,0.0389,0.0355,0.0333,0.0334,0.063,0.0632,0,0,0.0236,0.0246,0.0303,0.0309,0.0235,0.0212,0.021,0.0302,0.031,0.0387,0.0391,0.0357,0.0334,0.0335,0.0629,0.0631,0,0,0,0.0241,0.0248,0.0244,0.0306,0.0283,0.0211,0.0208,0.0305,0.0308,0.0392,0.0358,0.0335,0.0337,0.0627,0.063,0.0727,0,0,0,0.0242,0.025,0.0245,0.0249,0.028,0.0265,0.0209,0.0301,0.0309,0.0358,0.0335,0.0339,0.0624,0.0628,0.072,0.0784,0,0,0,0.0262,0.0251,0.0253,0.025,0.023,0.0262,0.0267,0.0301,0.0291,0.0332,0.0339,0.0623,0.0627,0.0714,0.0773,0.0891,0,0,0,0.0264,0.0289,0.0253,0.0279,0.0231,0.0278,0.0266,0.0296,0.0333,0.0336,0.0625,0.0629,0.0712,0.0766,0.0884,0.0885,0.0919,0,0,0.0302,0.0294,0.0312,0.028,0.034,0.0282,0.0396,0.0426,0.0442,0.0602,0.0607,0.0723,0.0772,0.089,0.1145,0.117,0,0,0,0.0329,0.0356,0.0364,0.0387,0.0396,0.0468,0.0471,0.0525,0.066,0.0483,0.0787,0.0817,0.0887,0.0874,0.0897,0.0651,0.065,0.065,0.0649,0.0408,0.0419,0.0481,0.0518,0.0556,0.0615,0.0704,0.0802,0.0772,0.0872,0.0943,0.1167,0.1157,0.1174,0.0986,0.0987,0.0987,0.0987,0.0988,0.0512,0.0559,0.0597,0.0663,0.0736,0.0834,0.0984,0.1004,0.1206,0.1125,0.1187,0.1037,0.1203,0.0997,0.0995,0.0994,0.0993,0.0992,0.0992,0.0585,0.0611,0.0654,0.0756,0.0883,0.0964,0.1153,0.1241,0.1325,0.1411,0.1397,0.1394,0.1209,0.1434,0.1435,0.1436,0.1437,0.1437,0.1438,0.0632,0.0681,0.074,0.0843,0.0907,0.1047,0.125,0.1388,0.1533,0.1548,0.1547,0.1319,0.1304,0.1239,0.1451,0.1449,0.1447,0.1446,0.1445,0.0703,0.0702,0.0789,0.0846,0.0996,0.1151,0.1322,0.1592,0.1729,0.1822,0.1635,0.1626,0.1602,0.1582,0.1526,0.18,0.18,0.18,0.18,0.0719,0.0734,0.0821,0.0903,0.104,0.1199,0.1445,0.1583,0.1719,0.1702,0.1705,0.1568,0.1558,0.1521,0.1503,0.144,0.1692,0.1692,0.1691,0.0741,0.0767,0.0822,0.0902,0.1047,0.126,0.1446,0.1474,0.1548,0.1679,0.1601,0.1809,0.1611,0.1593,0.153,0.1504,0.1401,0,0]},{"header":{"parameterUnit":"m.s-1","parameterCategory":2,"la1":30.2992,"la2":30.254,"lo1":-89.0895,"lo2":-89.0443,"dy":0.0025,"dx":0.0025,"nx":19,"ny":19,"refTime":"2026-05-14T21:00:00:Z","depth":"2","parameterNumber":3,"parameterNumberName":"V-component_of_CURRENTS"},"data":[0,0,0,-0.0461,-0.0463,-0.0506,-0.0506,-0.0377,-0.0376,0,0,0,0,0,0,0,0,0,0,0,-0.044,-0.044,-0.0461,-0.0463,-0.0506,-0.0506,-0.0377,-0.0376,0,0,0,0,0,0,0,0,0,0,0,-0.044,-0.044,-0.0441,-0.0463,-0.0506,-0.0506,-0.0378,-0.0388,0,0,0,0,0,0,0,0,0,0,-0.0367,-0.0383,-0.044,-0.0441,-0.0464,-0.0506,-0.0506,-0.039,-0.0387,-0.0309,0,-0.0326,0,-0.0351,-0.0364,-0.0363,0,0,0,-0.045,-0.0386,-0.0396,-0.0441,-0.0464,-0.0506,-0.0483,-0.039,-0.0386,-0.0303,-0.0324,-0.0321,-0.0349,-0.0363,-0.0362,-0.019,-0.019,0,0,-0.0448,-0.0441,-0.04,-0.0394,-0.0484,-0.0482,-0.0485,-0.039,-0.0385,-0.0324,-0.0319,-0.0347,-0.0362,-0.036,-0.0191,-0.019,0,0,0,-0.0449,-0.0439,-0.0456,-0.0398,-0.0423,-0.0483,-0.0487,-0.0389,-0.0395,-0.0318,-0.0345,-0.0361,-0.0358,-0.0191,-0.0191,-0.0146,0,0,0,-0.0447,-0.0441,-0.0455,-0.045,-0.0427,-0.0434,-0.0488,-0.0402,-0.0393,-0.0346,-0.0361,-0.0357,-0.0192,-0.0191,-0.0148,-0.0084,0,0,0,-0.0436,-0.044,-0.0449,-0.045,-0.0476,-0.0437,-0.0438,-0.0402,-0.0408,-0.0363,-0.0356,-0.0192,-0.0191,-0.0151,-0.0089,-0.0051,0,0,0,-0.0422,-0.0429,-0.0449,-0.0458,-0.0476,-0.0462,-0.044,-0.0424,-0.0389,-0.036,-0.0192,-0.0191,-0.0151,-0.0093,-0.0054,-0.02,-0.0197,0,0,-0.0418,-0.0428,-0.0432,-0.0451,-0.0445,-0.0454,-0.0392,-0.0349,-0.0334,-0.0209,-0.0207,-0.0147,-0.009,-0.0051,-0.0121,-0.0121,0,0,0,-0.0422,-0.0419,-0.0424,-0.0427,-0.0426,-0.0372,-0.0352,-0.0315,-0.0232,-0.0311,-0.0132,-0.0096,-0.0074,-0.0169,-0.0168,-0.0184,-0.0184,-0.0184,-0.0185,-0.0393,-0.0396,-0.038,-0.0371,-0.035,-0.0299,-0.0241,-0.0174,-0.0179,-0.014,-0.0051,0.003,-0.0072,-0.0072,-0.0064,-0.0063,-0.0063,-0.0063,-0.0063,-0.0355,-0.0331,-0.0319,-0.0302,-0.0248,-0.0184,-0.0081,-0.0068,0.0052,0.0016,0.0032,-0.0105,-0.0069,-0.0059,-0.006,-0.006,-0.0061,-0.0061,-0.0061,-0.0314,-0.0295,-0.0292,-0.024,-0.0156,-0.0092,0.0063,0.0116,0.0118,0.0165,0.0046,0.0043,0.0067,0.016,0.016,0.0161,0.0161,0.0161,0.0162,-0.0262,-0.0254,-0.0212,-0.0164,-0.0108,0.0021,0.0156,0.0211,0.0177,0.0126,0.0123,0.0106,0.0098,0.0081,0.0169,0.0167,0.0167,0.0166,0.0165,-0.0192,-0.0199,-0.0133,-0.0084,0.0064,0.0192,0.0267,0.0251,0.026,0.0196,0.0083,0.0082,0.0062,0.0057,0.004,0.0112,0.0112,0.0112,0.0112,-0.0143,-0.0142,-0.0042,0.0066,0.0214,0.0304,0.0358,0.0284,0.0152,0.006,0.0064,-0.0035,-0.0034,-0.0064,-0.0065,-0.0087,-0.0047,-0.0046,-0.0046,-0.0086,-0.0068,0.0024,0.0122,0.0287,0.0406,0.0386,0.0281,0.0083,-0.0042,0.0143,0.008,-0.0065,-0.0062,-0.0112,-0.0112,-0.0149,0,0]}],[{"header":{"parameterUnit":"m.s-1","parameterCategory":2,"la1":30.2992,"la2":30.254,"lo1":-89.0895,"lo2":-89.0443,"dy":0.0025,"dx":0.0025,"nx":19,"ny":19,"refTime":"2026-05-14T21:00:00:Z","depth":"4","parameterNumber":2,"parameterNumberName":"U-component_of_CURRENTS"},"data":[0,0,0,0.0341,0.0344,0.0498,0.0499,0.0619,0.062,0,0,0,0,0,0,0,0,0,0,0,0.0276,0.0277,0.034,0.0344,0.0498,0.0499,0.0619,0.062,0,0,0,0,0,0,0,0,0,0,0,0.0276,0.0277,0.0277,0.0345,0.0498,0.0499,0.0618,0.0523,0,0,0,0,0,0,0,0,0,0,0.0383,0.0349,0.0276,0.0277,0.0345,0.0498,0.0499,0.0519,0.0529,0.0525,0,0.0541,0,0.0584,0.0625,0.0626,0,0,0,0.035,0.0342,0.0367,0.0278,0.0347,0.0498,0.043,0.0525,0.0536,0.0537,0.0544,0.0549,0.0586,0.0626,0.0626,0.0688,0.0688,0,0,0.0342,0.0322,0.0359,0.0373,0.0376,0.0425,0.0435,0.0533,0.0546,0.0544,0.0553,0.0588,0.0626,0.0627,0.0688,0.0688,0,0,0,0.0313,0.0316,0.0342,0.0367,0.0402,0.043,0.0441,0.0543,0.0546,0.0554,0.059,0.0627,0.0628,0.0688,0.0688,0.079,0,0,0,0.0308,0.0299,0.0337,0.033,0.04,0.049,0.0449,0.0539,0.0552,0.0589,0.0627,0.0629,0.0688,0.0688,0.0787,0.0859,0,0,0,0.0271,0.0297,0.0307,0.0328,0.0392,0.049,0.0501,0.0544,0.0573,0.0626,0.0629,0.0688,0.0688,0.0784,0.0854,0.0853,0,0,0,0.0256,0.0286,0.0306,0.0356,0.039,0.0501,0.0501,0.059,0.0639,0.0627,0.0688,0.0688,0.0784,0.085,0.085,0.076,0,0,0,0.0284,0.0289,0.0318,0.034,0.0436,0.0481,0.0599,0.0654,0.0631,0.0651,0.0654,0.0788,0.0853,0.0852,0.0765,0,0,0,0,0.0322,0.0346,0.0378,0.0439,0.051,0.0603,0.0671,0.0685,0.072,0.0659,0.0761,0.0799,0.0795,0.0732,0.0689,0.0689,0.0689,0.0689,0.0689,0.0357,0.0387,0.0458,0.0517,0.0586,0.0699,0.077,0.0792,0.0776,0.0784,0.0861,0.0907,0.0842,0.082,0.082,0.0821,0.0821,0.0821,0.0822,0.0421,0.0462,0.0517,0.0599,0.0679,0.0785,0.0874,0.089,0.0961,0.0913,0.0903,0.0819,0.0831,0.0829,0.0828,0.0827,0.0826,0.0825,0.0825,0.0454,0.0475,0.0532,0.0635,0.0756,0.086,0.0969,0.1036,0.1042,0.1092,0.0965,0.0964,0.0977,0.1064,0.1065,0.1065,0.1065,0.1066,0.1066,0.0457,0.0508,0.0574,0.0683,0.0762,0.0887,0.1038,0.1088,0.1122,0.1083,0.1115,0.0988,0.098,0.0988,0.1071,0.107,0.1069,0.1069,0.1069,0.0475,0.0496,0.0582,0.0655,0.0816,0.0889,0.1023,0.1089,0.1121,0.11,0.1044,0.1044,0.0994,0.0986,0.0992,0.1079,0.1079,0.1078,0,0.0468,0.0489,0.0595,0.0693,0.0799,0.0894,0.0953,0.1017,0.1036,0.1004,0.1094,0.1028,0.1027,0.0966,0.0957,0.0962,0,0,0,0.0466,0.0501,0.0573,0.0681,0.0797,0.0877,0.0969,0.0974,0.1025,0.1047,0.1057,0.1062,0.1073,0.1086,0.1008,0.0999,0.1008,0,0]},{"header":{"parameterUnit":"m.s-1","parameterCategory":2,"la1":30.2992,"la2":30.254,"lo1":-89.0895,"lo2":-89.0443,"dy":0.0025,"dx":0.0025,"nx":19,"ny":19,"refTime":"2026-05-14T21:00:00:Z","depth":"4","parameterNumber":3,"parameterNumberName":"V-component_of_CURRENTS"},"data":[0,0,0,-0.0324,-0.0325,-0.0405,-0.0406,-0.0574,-0.0576,0,0,0,0,0,0,0,0,0,0,0,-0.0303,-0.0303,-0.0324,-0.0325,-0.0405,-0.0406,-0.0574,-0.0576,0,0,0,0,0,0,0,0,0,0,0,-0.0303,-0.0303,-0.0304,-0.0325,-0.0405,-0.0406,-0.0574,-0.05,0,0,0,0,0,0,0,0,0,0,-0.0415,-0.0378,-0.0303,-0.0304,-0.0326,-0.0405,-0.0406,-0.0496,-0.0505,-0.0553,0,-0.0561,0,-0.0566,-0.0587,-0.0588,0,0,0,-0.0338,-0.037,-0.0393,-0.0304,-0.0326,-0.0405,-0.0373,-0.05,-0.051,-0.0565,-0.0564,-0.0569,-0.0569,-0.0588,-0.0589,-0.07,-0.07,0,0,-0.0334,-0.0322,-0.0385,-0.0399,-0.0345,-0.037,-0.0375,-0.0506,-0.0517,-0.0564,-0.0573,-0.0572,-0.059,-0.0591,-0.07,-0.07,0,0,0,-0.0312,-0.0318,-0.0336,-0.0392,-0.0398,-0.0372,-0.0378,-0.0511,-0.0517,-0.0575,-0.0574,-0.0591,-0.0593,-0.07,-0.07,-0.0642,0,0,0,-0.031,-0.0305,-0.0334,-0.0328,-0.0395,-0.0445,-0.038,-0.0508,-0.0522,-0.0573,-0.0591,-0.0594,-0.07,-0.07,-0.0644,-0.0614,0,0,0,-0.03,-0.0304,-0.0312,-0.0327,-0.0355,-0.0443,-0.0456,-0.0511,-0.0522,-0.0588,-0.0595,-0.07,-0.07,-0.0646,-0.0617,-0.0649,0,0,0,-0.0286,-0.0284,-0.0311,-0.0309,-0.0354,-0.0374,-0.0455,-0.0494,-0.0543,-0.0591,-0.07,-0.07,-0.0646,-0.0619,-0.065,-0.0527,0,0,0,-0.027,-0.0282,-0.0278,-0.0304,-0.0301,-0.0364,-0.039,-0.0495,-0.056,-0.0665,-0.0668,-0.0644,-0.0617,-0.0649,-0.0517,0,0,0,0,-0.0263,-0.0267,-0.0268,-0.0279,-0.03,-0.0331,-0.0423,-0.0484,-0.0582,-0.0587,-0.0656,-0.0641,-0.0663,-0.0595,-0.0699,-0.0699,-0.0699,-0.0699,-0.0699,-0.0242,-0.0248,-0.0238,-0.0251,-0.0264,-0.033,-0.0383,-0.0487,-0.055,-0.0586,-0.0604,-0.0598,-0.0522,-0.0618,-0.0618,-0.0618,-0.0617,-0.0617,-0.0617,-0.0214,-0.0203,-0.0218,-0.0215,-0.0241,-0.0276,-0.0376,-0.0437,-0.0547,-0.0575,-0.06,-0.0548,-0.0612,-0.0613,-0.0614,-0.0614,-0.0615,-0.0615,-0.0615,-0.0195,-0.0185,-0.0196,-0.0187,-0.0206,-0.025,-0.0298,-0.0385,-0.0495,-0.0517,-0.0486,-0.0579,-0.0577,-0.0538,-0.0538,-0.0538,-0.0538,-0.0538,-0.0538,-0.0161,-0.0165,-0.0155,-0.0158,-0.0163,-0.0186,-0.0256,-0.0309,-0.0398,-0.0411,-0.0504,-0.0573,-0.0575,-0.0574,-0.0537,-0.0537,-0.0537,-0.0537,-0.0537,-0.012,-0.013,-0.0108,-0.0109,-0.0118,-0.0134,-0.0188,-0.0222,-0.0278,-0.0306,-0.0382,-0.039,-0.0411,-0.0418,-0.0412,-0.0326,-0.0325,-0.0323,0,-0.0092,-0.0093,-0.0072,-0.0066,-0.0067,-0.0105,-0.01,-0.0144,-0.0236,-0.0232,-0.0337,-0.0425,-0.0429,-0.0456,-0.046,-0.0453,0,0,0,-0.006,-0.006,-0.0045,-0.0049,-0.0051,-0.0071,-0.0103,-0.0096,-0.0216,-0.0175,-0.028,-0.0291,-0.0395,-0.0537,-0.059,-0.0593,-0.0595,0,0]}]]